FDX122 UUDD-LOWW

Flight info

Callsign FDX122
Flight time 2h 32m
Altitude 34000
Route SOTOG4M SOTOG L736 GODBI L856 RAVOK P851 VALOL M984 LETKI/N0459F340 M984 KOTEK/N0415F240 M984 TUSIN DCT UPLAV DCT MIKOV MIKOV8W
Aircraft B738/M-SDE2E3FGHIRWXY/LB1

Departure

Time 2026-04-26 04:02
Airport Domodedovo International Airport (UUDD)

Arrival

Time 2026-04-26 06:35
Airport Vienna International Airport (LOWW)
Time Latitude Longitude Altitude Speed Heading
2026-04-26 03:23 55.41897 37.88531 583 ft 0 kts 54°
2026-04-26 03:56 55.41893 37.88520 583 ft 2 kts 49°
2026-04-26 03:56 55.41883 37.88505 583 ft 2 kts 23°
2026-04-26 03:56 55.41869 37.88499 583 ft 2 kts 357°
2026-04-26 03:56 55.41856 37.88503 583 ft 2 kts 332°
2026-04-26 03:57 55.41852 37.88507 583 ft 0 kts 322°
2026-04-26 03:59 55.41860 37.88496 583 ft 6 kts 320°
2026-04-26 03:59 55.41888 37.88403 585 ft 9 kts 291°
2026-04-26 03:59 55.41911 37.88297 586 ft 9 kts 289°
2026-04-26 03:59 55.41898 37.88180 588 ft 13 kts 243°
2026-04-26 04:00 55.41857 37.88037 589 ft 13 kts 243°
2026-04-26 04:00 55.41853 37.87894 590 ft 13 kts 309°
2026-04-26 04:00 55.41935 37.87790 593 ft 17 kts 326°
2026-04-26 04:00 55.42029 37.87677 595 ft 16 kts 326°
2026-04-26 04:01 55.42119 37.87568 597 ft 15 kts 326°
2026-04-26 04:01 55.42174 37.87429 599 ft 15 kts 256°
2026-04-26 04:01 55.42113 37.87286 598 ft 16 kts 211°
2026-04-26 04:01 55.41982 37.87368 598 ft 34 kts 146°
2026-04-26 04:02 55.41584 37.87849 587 ft 104 kts 146°
2026-04-26 04:02 55.40816 37.88766 574 ft 161 kts 144°
2026-04-26 04:02 55.39858 37.89968 1172 ft 166 kts 146°
2026-04-26 04:02 55.38917 37.91094 1977 ft 167 kts 163°
2026-04-26 04:03 55.37826 37.91839 2483 ft 180 kts 171°
2026-04-26 04:03 55.36538 37.92558 2728 ft 206 kts 170°
2026-04-26 04:03 55.35101 37.93370 2976 ft 226 kts 169°
2026-04-26 04:03 55.33581 37.94249 3474 ft 235 kts 168°
2026-04-26 04:04 55.31946 37.95007 3790 ft 246 kts 182°
2026-04-26 04:04 55.30238 37.94783 4457 ft 246 kts 194°
2026-04-26 04:04 55.28693 37.93649 5334 ft 240 kts 213°
2026-04-26 04:04 55.27288 37.92025 6207 ft 243 kts 214°
2026-04-26 04:05 55.25879 37.90378 7056 ft 244 kts 214°
2026-04-26 04:05 55.24475 37.88746 7870 ft 246 kts 214°
2026-04-26 04:05 55.23041 37.87090 8705 ft 248 kts 214°
2026-04-26 04:05 55.21592 37.85426 9516 ft 251 kts 214°
2026-04-26 04:06 55.20119 37.83742 10239 ft 255 kts 215°
2026-04-26 04:06 55.18579 37.81984 10502 ft 276 kts 215°
2026-04-26 04:06 55.16894 37.80121 10673 ft 298 kts 210°
2026-04-26 04:06 55.14866 37.78881 10831 ft 321 kts 197°
2026-04-26 04:07 55.12629 37.77968 10959 ft 339 kts 196°
2026-04-26 04:07 55.10288 37.77039 11271 ft 350 kts 196°
2026-04-26 04:07 55.07896 37.76071 11825 ft 353 kts 197°
2026-04-26 04:07 55.05496 37.75075 12415 ft 356 kts 197°
2026-04-26 04:08 55.03074 37.74056 12953 ft 360 kts 197°
2026-04-26 04:08 55.00655 37.72887 13439 ft 361 kts 205°
2026-04-26 04:08 54.98506 37.70683 13912 ft 359 kts 221°
2026-04-26 04:08 54.96670 37.67735 14439 ft 361 kts 225°
2026-04-26 04:09 54.94947 37.64538 14875 ft 364 kts 236°
2026-04-26 04:09 54.93767 37.60643 15367 ft 365 kts 249°
2026-04-26 04:09 54.93208 37.56321 15887 ft 369 kts 262°
2026-04-26 04:09 54.92964 37.51858 16384 ft 373 kts 263°
2026-04-26 04:10 54.92750 37.47340 16833 ft 377 kts 263°
2026-04-26 04:10 54.92519 37.42840 17315 ft 379 kts 263°
2026-04-26 04:10 54.92261 37.38270 17808 ft 381 kts 263°
2026-04-26 04:10 54.91992 37.33685 18221 ft 382 kts 263°
2026-04-26 04:11 54.91718 37.29080 18652 ft 384 kts 263°
2026-04-26 04:11 54.91437 37.24445 19072 ft 385 kts 261°
2026-04-26 04:11 54.90736 37.19973 19452 ft 386 kts 246°
2026-04-26 04:11 54.89368 37.15957 19862 ft 388 kts 233°
2026-04-26 04:12 54.87502 37.12528 20232 ft 392 kts 226°
2026-04-26 04:12 54.85521 37.09250 20583 ft 394 kts 226°
2026-04-26 04:12 54.83521 37.05976 20939 ft 396 kts 226°
2026-04-26 04:12 54.81525 37.02664 21297 ft 398 kts 227°
2026-04-26 04:13 54.79525 36.99301 21592 ft 402 kts 227°
2026-04-26 04:13 54.77522 36.95916 21924 ft 404 kts 227°
2026-04-26 04:13 54.75726 36.92211 22233 ft 402 kts 240°
2026-04-26 04:13 54.74535 36.87839 22585 ft 401 kts 252°
2026-04-26 04:14 54.73989 36.83170 22885 ft 404 kts 264°
2026-04-26 04:14 54.73808 36.78307 23203 ft 405 kts 266°
2026-04-26 04:14 54.73652 36.73437 23477 ft 406 kts 265°
2026-04-26 04:14 54.73466 36.68555 23756 ft 407 kts 265°
2026-04-26 04:15 54.73277 36.63650 24007 ft 409 kts 266°
2026-04-26 04:15 54.73247 36.58717 24260 ft 411 kts 269°
2026-04-26 04:15 54.73312 36.53761 24521 ft 412 kts 270°
2026-04-26 04:15 54.73399 36.48795 24777 ft 413 kts 270°
2026-04-26 04:16 54.73476 36.43809 25013 ft 415 kts 269°
2026-04-26 04:16 54.73536 36.38810 25318 ft 417 kts 269°
2026-04-26 04:16 54.73584 36.33795 25659 ft 417 kts 269°
2026-04-26 04:16 54.73624 36.28773 25955 ft 418 kts 269°
2026-04-26 04:17 54.73660 36.23731 26219 ft 420 kts 269°
2026-04-26 04:17 54.73694 36.18674 26544 ft 420 kts 268°
2026-04-26 04:17 54.73723 36.13629 26990 ft 417 kts 268°
2026-04-26 04:17 54.73746 36.08632 27467 ft 414 kts 268°
2026-04-26 04:18 54.73764 36.03646 27878 ft 413 kts 268°
2026-04-26 04:18 54.73780 35.98733 28253 ft 412 kts 268°
2026-04-26 04:18 54.73795 35.93778 28666 ft 410 kts 268°
2026-04-26 04:18 54.73808 35.88855 29100 ft 408 kts 268°
2026-04-26 04:19 54.73820 35.83950 29477 ft 407 kts 268°
2026-04-26 04:19 54.73829 35.79056 29773 ft 407 kts 268°
2026-04-26 04:19 54.73837 35.74157 30082 ft 406 kts 267°
2026-04-26 04:19 54.73843 35.69272 30362 ft 407 kts 268°
2026-04-26 04:20 54.73847 35.64378 30641 ft 407 kts 268°
2026-04-26 04:20 54.73849 35.59473 30951 ft 406 kts 268°
2026-04-26 04:20 54.73849 35.54596 31247 ft 405 kts 268°
2026-04-26 04:20 54.73847 35.49724 31506 ft 405 kts 268°
2026-04-26 04:21 54.73843 35.44843 31723 ft 406 kts 268°
2026-04-26 04:21 54.73837 35.40020 31998 ft 405 kts 268°
2026-04-26 04:21 54.73831 35.35149 32302 ft 404 kts 268°
2026-04-26 04:21 54.73822 35.30287 32569 ft 404 kts 268°
2026-04-26 04:22 54.73788 35.25420 32802 ft 404 kts 265°
2026-04-26 04:22 54.73465 35.20582 33051 ft 402 kts 258°
2026-04-26 04:22 54.72763 35.15909 33324 ft 401 kts 253°
2026-04-26 04:22 54.71925 35.11309 33453 ft 403 kts 252°
2026-04-26 04:23 54.71075 35.06667 33456 ft 405 kts 252°
2026-04-26 04:23 54.69385 34.97391 33458 ft 403 kts 253°
2026-04-26 04:24 54.67715 34.88175 33457 ft 400 kts 253°
2026-04-26 04:24 54.66063 34.79066 33463 ft 399 kts 252°
2026-04-26 04:25 54.64402 34.69940 33467 ft 398 kts 252°
2026-04-26 04:25 54.62731 34.60806 33473 ft 399 kts 252°
2026-04-26 04:26 54.61046 34.51647 33470 ft 401 kts 252°
2026-04-26 04:26 54.59347 34.42451 33481 ft 404 kts 252°
2026-04-26 04:27 54.57629 34.33197 33483 ft 406 kts 252°
2026-04-26 04:27 54.55894 34.23902 33485 ft 408 kts 252°
2026-04-26 04:28 54.54144 34.14573 33477 ft 410 kts 252°
2026-04-26 04:28 54.52680 34.06805 33482 ft 411 kts 252°
2026-04-26 04:29 54.50909 33.97447 33477 ft 411 kts 252°
2026-04-26 04:29 54.48842 33.86580 33484 ft 411 kts 252°
2026-04-26 04:30 54.47354 33.78801 33485 ft 411 kts 251°
2026-04-26 04:30 54.45565 33.69481 33485 ft 410 kts 251°
2026-04-26 04:31 54.43770 33.60170 33484 ft 410 kts 251°
2026-04-26 04:31 54.41967 33.50875 33488 ft 410 kts 251°
2026-04-26 04:32 54.40155 33.41598 33487 ft 409 kts 251°
2026-04-26 04:32 54.38338 33.32337 33490 ft 409 kts 251°
2026-04-26 04:33 54.36513 33.23072 33489 ft 410 kts 251°
2026-04-26 04:33 54.35598 33.18438 33676 ft 409 kts 250°
2026-04-26 04:33 54.34694 33.13868 33601 ft 400 kts 249°
2026-04-26 04:34 54.32926 33.04969 33506 ft 392 kts 249°
2026-04-26 04:34 54.31177 32.96214 33494 ft 390 kts 249°
2026-04-26 04:35 54.29410 32.87412 33508 ft 393 kts 249°
2026-04-26 04:35 54.27604 32.78456 33502 ft 401 kts 249°
2026-04-26 04:36 54.25777 32.69428 33493 ft 402 kts 249°
2026-04-26 04:36 54.23939 32.60384 33492 ft 403 kts 249°
2026-04-26 04:37 54.22088 32.51318 33491 ft 403 kts 249°
2026-04-26 04:37 54.20244 32.42332 33490 ft 403 kts 249°
2026-04-26 04:38 54.18382 32.33296 33495 ft 403 kts 249°
2026-04-26 04:38 54.16514 32.24272 33496 ft 402 kts 249°
2026-04-26 04:39 54.14652 32.15320 33496 ft 402 kts 249°
2026-04-26 04:39 54.12778 32.06344 33497 ft 402 kts 249°
2026-04-26 04:40 54.10897 31.97377 33483 ft 401 kts 249°
2026-04-26 04:40 54.09012 31.88426 33488 ft 401 kts 249°
2026-04-26 04:41 54.07116 31.79474 33487 ft 402 kts 249°
2026-04-26 04:41 54.05211 31.70520 33495 ft 402 kts 249°
2026-04-26 04:42 54.03299 31.61561 33495 ft 403 kts 249°
2026-04-26 04:42 54.01376 31.52588 33492 ft 404 kts 249°
2026-04-26 04:43 53.99441 31.43599 33491 ft 405 kts 249°
2026-04-26 04:43 53.97507 31.34655 33501 ft 406 kts 249°
2026-04-26 04:44 53.95549 31.25637 33494 ft 407 kts 249°
2026-04-26 04:44 53.93578 31.16600 33497 ft 408 kts 249°
2026-04-26 04:45 53.91592 31.07532 33492 ft 409 kts 249°
2026-04-26 04:45 53.89600 30.98473 33496 ft 410 kts 249°
2026-04-26 04:46 53.87598 30.89405 33494 ft 411 kts 249°
2026-04-26 04:46 53.85582 30.80332 33492 ft 412 kts 248°
2026-04-26 04:47 53.83546 30.71257 33491 ft 413 kts 249°
2026-04-26 04:47 53.81512 30.62225 33496 ft 413 kts 249°
2026-04-26 04:48 53.78425 30.48581 33510 ft 414 kts 249°
2026-04-26 04:48 53.76359 30.39496 33513 ft 414 kts 249°
2026-04-26 04:49 53.74283 30.30406 33516 ft 415 kts 249°
2026-04-26 04:49 53.72199 30.21317 33517 ft 415 kts 249°
2026-04-26 04:50 53.70114 30.12264 33515 ft 415 kts 248°
2026-04-26 04:50 53.68010 30.03168 33510 ft 415 kts 249°
2026-04-26 04:51 53.65902 29.94088 33500 ft 415 kts 249°
2026-04-26 04:51 53.63792 29.85035 33492 ft 415 kts 248°
2026-04-26 04:52 53.61686 29.76042 33488 ft 415 kts 249°
2026-04-26 04:52 53.59558 29.66982 33482 ft 415 kts 249°
2026-04-26 04:53 53.57428 29.57938 33489 ft 415 kts 248°
2026-04-26 04:53 53.55290 29.48892 33490 ft 416 kts 248°
2026-04-26 04:54 53.53163 29.39925 33487 ft 416 kts 248°
2026-04-26 04:54 53.51007 29.30871 33489 ft 417 kts 248°
2026-04-26 04:55 53.48840 29.21818 33491 ft 418 kts 248°
2026-04-26 04:55 53.46659 29.12747 33489 ft 419 kts 248°
2026-04-26 04:56 53.44480 29.03713 33493 ft 421 kts 249°
2026-04-26 04:56 53.42271 28.94588 33494 ft 422 kts 249°
2026-04-26 04:57 53.40051 28.85451 33493 ft 423 kts 249°
2026-04-26 04:57 53.37820 28.76307 33493 ft 424 kts 249°
2026-04-26 04:58 53.35579 28.67158 33502 ft 425 kts 249°
2026-04-26 04:58 53.33379 28.58016 33497 ft 426 kts 250°
2026-04-26 04:59 53.31225 28.48784 33496 ft 426 kts 250°
2026-04-26 04:59 53.29071 28.39585 33495 ft 425 kts 250°
2026-04-26 05:00 53.26905 28.30410 33499 ft 423 kts 249°
2026-04-26 05:00 53.24735 28.21276 33499 ft 422 kts 249°
2026-04-26 05:01 53.22564 28.12179 33498 ft 421 kts 249°
2026-04-26 05:01 53.20392 28.03112 33501 ft 420 kts 249°
2026-04-26 05:02 53.18232 27.94133 33504 ft 419 kts 249°
2026-04-26 05:02 53.16050 27.85098 33507 ft 419 kts 249°
2026-04-26 05:03 53.13857 27.76050 33525 ft 422 kts 249°
2026-04-26 05:03 53.11639 27.66942 33534 ft 426 kts 249°
2026-04-26 05:04 53.09409 27.57781 33528 ft 428 kts 249°
2026-04-26 05:04 53.07185 27.48655 33531 ft 428 kts 249°
2026-04-26 05:05 53.04941 27.39480 33535 ft 428 kts 249°
2026-04-26 05:05 53.02689 27.30319 33538 ft 427 kts 249°
2026-04-26 05:06 53.00434 27.21179 33546 ft 426 kts 249°
2026-04-26 05:06 52.98178 27.12075 33558 ft 425 kts 249°
2026-04-26 05:07 52.95923 27.03013 33562 ft 425 kts 249°
2026-04-26 05:07 52.93663 26.93966 33569 ft 424 kts 249°
2026-04-26 05:08 52.91397 26.84933 33574 ft 424 kts 249°
2026-04-26 05:08 52.89133 26.75944 33584 ft 425 kts 249°
2026-04-26 05:09 52.86847 26.66903 33583 ft 426 kts 249°
2026-04-26 05:09 52.84545 26.57837 33591 ft 427 kts 249°
2026-04-26 05:10 52.82251 26.48839 33609 ft 428 kts 249°
2026-04-26 05:10 52.79929 26.39769 33613 ft 429 kts 249°
2026-04-26 05:11 52.77596 26.30692 33611 ft 430 kts 249°
2026-04-26 05:11 52.75246 26.21585 33627 ft 430 kts 249°
2026-04-26 05:12 52.72889 26.12491 33629 ft 431 kts 249°
2026-04-26 05:12 52.70544 26.03476 33631 ft 431 kts 249°
2026-04-26 05:13 52.68173 25.94397 33640 ft 431 kts 249°
2026-04-26 05:13 52.65797 25.85336 33649 ft 431 kts 249°
2026-04-26 05:14 52.63413 25.76283 33649 ft 430 kts 249°
2026-04-26 05:14 52.61021 25.67235 33653 ft 430 kts 249°
2026-04-26 05:15 52.58644 25.58277 33662 ft 430 kts 249°
2026-04-26 05:15 52.56245 25.49272 33668 ft 430 kts 249°
2026-04-26 05:16 52.53839 25.40276 33672 ft 430 kts 249°
2026-04-26 05:16 52.51831 25.32794 33676 ft 430 kts 249°
2026-04-26 05:17 52.49408 25.23797 33679 ft 430 kts 250°
2026-04-26 05:17 52.46980 25.14817 33688 ft 431 kts 250°
2026-04-26 05:18 52.44538 25.05818 33689 ft 431 kts 250°
2026-04-26 05:18 52.42094 24.96840 33691 ft 432 kts 250°
2026-04-26 05:19 52.39867 24.87719 33693 ft 431 kts 253°
2026-04-26 05:19 52.37778 24.78600 33696 ft 431 kts 253°
2026-04-26 05:20 52.35649 24.69411 33701 ft 431 kts 253°
2026-04-26 05:20 52.33491 24.60239 33706 ft 432 kts 253°
2026-04-26 05:21 52.31315 24.51066 33722 ft 432 kts 253°
2026-04-26 05:21 52.29145 24.41953 33711 ft 433 kts 253°
2026-04-26 05:22 52.26953 24.32783 33726 ft 433 kts 253°
2026-04-26 05:22 52.24757 24.23628 33745 ft 433 kts 253°
2026-04-26 05:23 52.22568 24.14475 33752 ft 432 kts 256°
2026-04-26 05:23 52.21399 24.04996 33760 ft 424 kts 270°
2026-04-26 05:24 52.21524 23.95428 33764 ft 422 kts 275°
2026-04-26 05:24 52.21767 23.85866 33770 ft 422 kts 275°
2026-04-26 05:25 52.21969 23.76362 33772 ft 422 kts 275°
2026-04-26 05:25 52.22149 23.66780 33767 ft 423 kts 275°
2026-04-26 05:26 52.22321 23.57199 33774 ft 423 kts 275°
2026-04-26 05:26 52.21527 23.47666 33788 ft 435 kts 254°
2026-04-26 05:27 52.18286 23.39189 33794 ft 452 kts 234°
2026-04-26 05:27 52.14354 23.31284 33794 ft 447 kts 240°
2026-04-26 05:28 52.10713 23.23174 33797 ft 446 kts 240°
2026-04-26 05:28 52.07031 23.15033 33802 ft 447 kts 240°
2026-04-26 05:29 52.03297 23.06942 33814 ft 447 kts 240°
2026-04-26 05:29 51.99539 22.98890 33818 ft 447 kts 240°
2026-04-26 05:30 51.95794 22.90900 33829 ft 447 kts 240°
2026-04-26 05:30 51.92019 22.82871 33843 ft 447 kts 240°
2026-04-26 05:31 51.88246 22.74866 33850 ft 447 kts 240°
2026-04-26 05:31 51.84460 22.66859 33859 ft 447 kts 240°
2026-04-26 05:32 51.80675 22.58876 33862 ft 447 kts 240°
2026-04-26 05:32 51.76883 22.50905 33875 ft 447 kts 240°
2026-04-26 05:33 51.73108 22.42994 33884 ft 447 kts 240°
2026-04-26 05:33 51.69298 22.35036 33894 ft 447 kts 240°
2026-04-26 05:34 51.65487 22.27100 33898 ft 447 kts 241°
2026-04-26 05:34 51.61674 22.19182 33907 ft 447 kts 241°
2026-04-26 05:35 51.57856 22.11279 33919 ft 447 kts 241°
2026-04-26 05:35 51.54033 22.03391 33932 ft 447 kts 241°
2026-04-26 05:36 51.50204 21.95512 33930 ft 447 kts 241°
2026-04-26 05:36 51.46367 21.87644 33932 ft 447 kts 242°
2026-04-26 05:37 51.42540 21.79817 33945 ft 447 kts 242°
2026-04-26 05:37 51.38698 21.71985 33951 ft 447 kts 242°
2026-04-26 05:38 51.34878 21.64221 33957 ft 446 kts 242°
2026-04-26 05:38 51.31033 21.56429 33965 ft 446 kts 242°
2026-04-26 05:39 51.27184 21.48650 33966 ft 445 kts 243°
2026-04-26 05:39 51.23338 21.40899 33969 ft 445 kts 243°
2026-04-26 05:40 51.19489 21.33165 33965 ft 444 kts 243°
2026-04-26 05:40 51.15678 21.25509 33976 ft 443 kts 243°
2026-04-26 05:41 51.11844 21.17822 33969 ft 442 kts 244°
2026-04-26 05:41 51.08016 21.10169 33983 ft 441 kts 244°
2026-04-26 05:42 51.04186 21.02535 33980 ft 441 kts 244°
2026-04-26 05:42 51.00357 20.94925 33984 ft 440 kts 244°
2026-04-26 05:43 50.96531 20.87341 33985 ft 439 kts 244°
2026-04-26 05:43 50.92706 20.79785 33989 ft 439 kts 244°
2026-04-26 05:44 50.88880 20.72249 33995 ft 439 kts 244°
2026-04-26 05:44 50.85073 20.64770 33999 ft 438 kts 244°
2026-04-26 05:45 50.81240 20.57260 34010 ft 438 kts 244°
2026-04-26 05:45 50.77404 20.49770 34008 ft 438 kts 244°
2026-04-26 05:46 50.73564 20.42290 34022 ft 438 kts 244°
2026-04-26 05:46 50.69745 20.34870 34018 ft 438 kts 244°
2026-04-26 05:47 50.65896 20.27415 34022 ft 439 kts 244°
2026-04-26 05:47 50.62166 20.19850 34031 ft 433 kts 247°
2026-04-26 05:48 50.58663 20.12148 34027 ft 433 kts 247°
2026-04-26 05:48 50.55115 20.04464 34041 ft 435 kts 246°
2026-04-26 05:49 50.49764 19.92983 34051 ft 436 kts 246°
2026-04-26 05:50 50.46170 19.85297 34051 ft 437 kts 246°
2026-04-26 05:50 50.42560 19.77595 34058 ft 438 kts 246°
2026-04-26 05:51 50.38967 19.69951 34067 ft 438 kts 246°
2026-04-26 05:51 50.35336 19.62248 34065 ft 440 kts 245°
2026-04-26 05:52 50.31697 19.54550 34074 ft 440 kts 245°
2026-04-26 05:52 50.28044 19.46844 34071 ft 441 kts 245°
2026-04-26 05:53 50.24377 19.39134 34072 ft 442 kts 245°
2026-04-26 05:53 50.20702 19.31427 34079 ft 443 kts 244°
2026-04-26 05:54 50.17035 19.23762 34083 ft 443 kts 244°
2026-04-26 05:54 50.13338 19.16056 34089 ft 444 kts 244°
2026-04-26 05:55 50.09638 19.08363 34096 ft 444 kts 244°
2026-04-26 05:55 50.05929 19.00672 34089 ft 444 kts 244°
2026-04-26 05:56 50.02213 18.92994 34098 ft 444 kts 243°
2026-04-26 05:56 49.98477 18.85342 34111 ft 444 kts 243°
2026-04-26 05:57 49.94734 18.77703 34111 ft 444 kts 243°
2026-04-26 05:57 49.90987 18.70070 34111 ft 444 kts 243°
2026-04-26 05:58 49.87261 18.62494 34122 ft 444 kts 243°
2026-04-26 05:58 49.83503 18.54877 34135 ft 445 kts 242°
2026-04-26 05:59 49.79741 18.47252 34135 ft 445 kts 242°
2026-04-26 05:59 49.75979 18.39639 34143 ft 446 kts 242°
2026-04-26 06:00 49.72204 18.32020 34146 ft 446 kts 242°
2026-04-26 06:00 49.68420 18.24406 34154 ft 446 kts 242°
2026-04-26 06:01 49.64632 18.16807 34150 ft 447 kts 241°
2026-04-26 06:01 49.60837 18.09214 34151 ft 447 kts 241°
2026-04-26 06:02 49.57057 18.01674 34150 ft 447 kts 241°
2026-04-26 06:02 49.53243 17.94088 34143 ft 448 kts 241°
2026-04-26 06:03 49.49426 17.86516 34148 ft 448 kts 240°
2026-04-26 06:03 49.45602 17.78954 34141 ft 448 kts 240°
2026-04-26 06:04 49.41769 17.71393 34130 ft 449 kts 240°
2026-04-26 06:04 49.39834 17.67576 33552 ft 455 kts 240°
2026-04-26 06:04 49.37891 17.63759 32918 ft 453 kts 240°
2026-04-26 06:04 49.35951 17.59955 32252 ft 452 kts 240°
2026-04-26 06:05 49.34668 17.57439 31776 ft 452 kts 240°
2026-04-26 06:05 49.32731 17.53647 31063 ft 452 kts 239°
2026-04-26 06:05 49.30725 17.49927 30531 ft 452 kts 237°
2026-04-26 06:05 49.28652 17.46337 30000 ft 449 kts 236°
2026-04-26 06:06 49.26561 17.42815 29441 ft 444 kts 235°
2026-04-26 06:06 49.24487 17.39349 28921 ft 439 kts 235°
2026-04-26 06:06 49.22443 17.35923 28412 ft 433 kts 236°
2026-04-26 06:06 49.19774 17.31422 27735 ft 427 kts 236°
2026-04-26 06:07 49.18433 17.29151 27400 ft 425 kts 236°
2026-04-26 06:07 49.15820 17.24719 26733 ft 420 kts 236°
2026-04-26 06:07 49.14525 17.22522 26413 ft 418 kts 236°
2026-04-26 06:07 49.12585 17.19230 25931 ft 415 kts 236°
2026-04-26 06:08 49.10656 17.15963 25450 ft 412 kts 236°
2026-04-26 06:08 49.08741 17.12722 24975 ft 410 kts 236°
2026-04-26 06:08 49.06839 17.09509 24503 ft 407 kts 236°
2026-04-26 06:08 49.04943 17.06310 24015 ft 405 kts 236°
2026-04-26 06:09 49.03053 17.03124 23486 ft 404 kts 236°
2026-04-26 06:09 49.01172 16.99959 22960 ft 401 kts 236°
2026-04-26 06:09 48.99301 16.96816 22450 ft 398 kts 236°
2026-04-26 06:09 48.97444 16.93701 21973 ft 395 kts 236°
2026-04-26 06:10 48.95602 16.90614 21493 ft 392 kts 236°
2026-04-26 06:10 48.93780 16.87562 21027 ft 388 kts 236°
2026-04-26 06:10 48.91993 16.84573 20566 ft 385 kts 236°
2026-04-26 06:10 48.90198 16.81574 20121 ft 382 kts 236°
2026-04-26 06:11 48.88412 16.78592 19661 ft 380 kts 236°
2026-04-26 06:11 48.86642 16.75638 19213 ft 377 kts 236°
2026-04-26 06:11 48.84878 16.72697 18759 ft 375 kts 236°
2026-04-26 06:11 48.83120 16.69774 18286 ft 373 kts 236°
2026-04-26 06:12 48.81377 16.66882 17786 ft 371 kts 235°
2026-04-26 06:12 48.79335 16.64411 17290 ft 385 kts 214°
2026-04-26 06:12 48.76753 16.63189 16968 ft 395 kts 192°
2026-04-26 06:12 48.73992 16.63396 16700 ft 401 kts 172°
2026-04-26 06:13 48.71245 16.64326 16480 ft 408 kts 170°
2026-04-26 06:13 48.68467 16.65334 16207 ft 412 kts 170°
2026-04-26 06:13 48.65681 16.66310 15935 ft 409 kts 171°
2026-04-26 06:13 48.62915 16.67235 15667 ft 405 kts 171°
2026-04-26 06:14 48.60191 16.68034 15395 ft 398 kts 180°
2026-04-26 06:14 48.57494 16.67724 15153 ft 382 kts 200°
2026-04-26 06:14 48.55067 16.66298 14925 ft 368 kts 218°
2026-04-26 06:14 48.53006 16.64108 14713 ft 359 kts 225°
2026-04-26 06:15 48.51037 16.61784 14476 ft 359 kts 225°
2026-04-26 06:15 48.49064 16.59473 14250 ft 360 kts 224°
2026-04-26 06:15 48.46837 16.57638 13988 ft 376 kts 202°
2026-04-26 06:15 48.44203 16.57213 13740 ft 389 kts 179°
2026-04-26 06:16 48.41540 16.58098 13507 ft 393 kts 168°
2026-04-26 06:16 48.38938 16.59252 13228 ft 395 kts 166°
2026-04-26 06:16 48.36306 16.60451 12958 ft 394 kts 167°
2026-04-26 06:16 48.33677 16.61617 12701 ft 393 kts 167°
2026-04-26 06:17 48.31054 16.62742 12443 ft 390 kts 168°
2026-04-26 06:17 48.28449 16.63839 12187 ft 388 kts 168°
2026-04-26 06:17 48.25856 16.64925 11944 ft 385 kts 168°
2026-04-26 06:17 48.23278 16.66004 11701 ft 383 kts 168°
2026-04-26 06:18 48.20713 16.67078 11452 ft 381 kts 168°
2026-04-26 06:18 48.18168 16.68143 11211 ft 378 kts 168°
2026-04-26 06:18 48.15690 16.69181 10967 ft 370 kts 168°
2026-04-26 06:18 48.13233 16.70210 10736 ft 363 kts 169°
2026-04-26 06:19 48.10821 16.71218 10437 ft 358 kts 169°
2026-04-26 06:19 48.08438 16.72210 10168 ft 353 kts 169°
2026-04-26 06:19 48.06090 16.73187 9950 ft 347 kts 169°
2026-04-26 06:19 48.03813 16.74135 9939 ft 333 kts 169°
2026-04-26 06:20 48.01624 16.75045 9909 ft 320 kts 169°
2026-04-26 06:20 47.99494 16.75927 9377 ft 319 kts 169°
2026-04-26 06:20 47.97384 16.76801 9087 ft 310 kts 170°
2026-04-26 06:20 47.95332 16.77651 8878 ft 304 kts 170°
2026-04-26 06:21 47.93284 16.78495 8682 ft 306 kts 169°
2026-04-26 06:21 47.91228 16.79340 8493 ft 308 kts 169°
2026-04-26 06:21 47.89161 16.80191 8282 ft 309 kts 169°
2026-04-26 06:21 47.87081 16.81047 8079 ft 310 kts 169°
2026-04-26 06:22 47.85000 16.81904 7880 ft 310 kts 169°
2026-04-26 06:22 47.82956 16.82747 7671 ft 307 kts 169°
2026-04-26 06:22 47.80910 16.83589 7470 ft 302 kts 169°
2026-04-26 06:22 47.78892 16.84418 7267 ft 298 kts 169°
2026-04-26 06:23 47.76910 16.85233 7076 ft 294 kts 170°
2026-04-26 06:23 47.74950 16.86017 6873 ft 288 kts 175°
2026-04-26 06:23 47.73050 16.85969 6718 ft 261 kts 205°
2026-04-26 06:23 47.71549 16.84827 6568 ft 229 kts 230°
2026-04-26 06:24 47.70497 16.83222 6427 ft 208 kts 244°
2026-04-26 06:24 47.69826 16.81417 6285 ft 194 kts 261°
2026-04-26 06:24 47.69427 16.79511 6162 ft 192 kts 265°
2026-04-26 06:24 47.69404 16.77616 6041 ft 180 kts 290°
2026-04-26 06:25 47.69969 16.76021 5956 ft 178 kts 312°
2026-04-26 06:25 47.70961 16.74926 5801 ft 180 kts 333°
2026-04-26 06:25 47.72156 16.74389 5673 ft 179 kts 339°
2026-04-26 06:25 47.73351 16.73889 5533 ft 178 kts 339°
2026-04-26 06:26 47.74543 16.73392 5407 ft 178 kts 339°
2026-04-26 06:26 47.75738 16.72897 5274 ft 178 kts 340°
2026-04-26 06:26 47.76929 16.72403 5146 ft 178 kts 340°
2026-04-26 06:26 47.78121 16.71909 5020 ft 178 kts 340°
2026-04-26 06:27 47.79316 16.71415 4899 ft 179 kts 340°
2026-04-26 06:27 47.80515 16.70918 4761 ft 179 kts 340°
2026-04-26 06:27 47.81722 16.70431 4629 ft 180 kts 342°
2026-04-26 06:27 47.82944 16.70018 4496 ft 179 kts 342°
2026-04-26 06:28 47.84151 16.69572 4375 ft 179 kts 342°
2026-04-26 06:28 47.85338 16.69099 4244 ft 179 kts 341°
2026-04-26 06:28 47.86535 16.68604 4116 ft 178 kts 341°
2026-04-26 06:28 47.87731 16.68100 3982 ft 179 kts 341°
2026-04-26 06:29 47.88927 16.67594 3850 ft 178 kts 341°
2026-04-26 06:29 47.90115 16.67092 3721 ft 178 kts 341°
2026-04-26 06:29 47.91307 16.66587 3600 ft 178 kts 342°
2026-04-26 06:29 47.92508 16.66074 3476 ft 179 kts 342°
2026-04-26 06:30 47.93691 16.65573 3329 ft 172 kts 342°
2026-04-26 06:30 47.94782 16.65111 3191 ft 155 kts 343°
2026-04-26 06:30 47.95751 16.64701 3104 ft 133 kts 342°
2026-04-26 06:30 47.96603 16.64338 3019 ft 124 kts 342°
2026-04-26 06:31 47.97448 16.63976 3006 ft 132 kts 342°
2026-04-26 06:31 47.98335 16.63601 2809 ft 131 kts 342°
2026-04-26 06:31 47.99225 16.63224 2606 ft 133 kts 342°
2026-04-26 06:31 48.00099 16.62854 2434 ft 129 kts 342°
2026-04-26 06:32 48.00952 16.62491 2271 ft 128 kts 342°
2026-04-26 06:32 48.01795 16.62134 2107 ft 127 kts 343°
2026-04-26 06:32 48.02658 16.61767 1923 ft 130 kts 343°
2026-04-26 06:32 48.03529 16.61396 1743 ft 131 kts 344°
2026-04-26 06:33 48.04405 16.61026 1538 ft 133 kts 343°
2026-04-26 06:33 48.05294 16.60650 1372 ft 133 kts 343°
2026-04-26 06:33 48.06180 16.60264 1196 ft 134 kts 343°
2026-04-26 06:33 48.07084 16.59889 1003 ft 133 kts 343°
2026-04-26 06:34 48.07977 16.59510 796 ft 134 kts 343°
2026-04-26 06:34 48.08872 16.59129 640 ft 134 kts 343°
2026-04-26 06:34 48.09712 16.58775 600 ft 112 kts 345°
2026-04-26 06:34 48.10347 16.58508 596 ft 77 kts 344°
2026-04-26 06:35 48.10755 16.58337 602 ft 49 kts 344°
2026-04-26 06:35 48.10952 16.58232 603 ft 26 kts 325°
2026-04-26 06:35 48.11055 16.58031 602 ft 24 kts 296°
2026-04-26 06:35 48.11152 16.57887 601 ft 19 kts 343°
2026-04-26 06:36 48.11281 16.57832 603 ft 19 kts 344°
2026-04-26 06:36 48.11405 16.57780 605 ft 18 kts 344°
2026-04-26 06:36 48.11540 16.57723 621 ft 21 kts 344°
2026-04-26 06:36 48.11692 16.57659 617 ft 25 kts 344°
2026-04-26 06:37 48.11852 16.57593 615 ft 23 kts 345°
2026-04-26 06:37 48.11994 16.57522 615 ft 19 kts 318°
2026-04-26 06:37 48.12062 16.57365 603 ft 19 kts 338°
2026-04-26 06:37 48.12179 16.57284 602 ft 19 kts 309°
2026-04-26 06:38 48.12238 16.57151 600 ft 9 kts 335°
2026-04-26 06:38 48.12302 16.57173 600 ft 9 kts 27°
2026-04-26 06:38 48.12330 16.57194 600 ft 0 kts 27°
2026-04-26 06:40 48.12329 16.57194 600 ft 0 kts 27°
2026-04-26 06:46 48.12329 16.57193 600 ft 0 kts 27°